Tracking 20628 objects as of 7-Apr-2020
HD Live streaming from Space Station
objects crossing your sky now

INTELSAT 901

Track INTELSAT 901 now!
INTELSAT 901 is classified as:


NORAD ID: 26824
Int'l Code: 2001-024A
Perigee: 35,786.9 km
Apogee: 35,801.3 km
Inclination: 0.1 °
Period: 1,436.1 minutes
Semi major axis: 42165 km
RCS: 15.9919 m2 (large)
Launch date: June 9, 2001
Source: International Telecommunications Satellite Organization (ITSO)
Launch site: FRENCH GUIANA (FRGUI)

72 C-band, 22 Ku-band, broadcasting, business services, direct-to-home TV broadcasting, telecommunications, VSAT networks; Atlantic Ocean region.
aabbcc
Your satellite tracking list
Your tracking list is empty




NASA's NSSDC Master Catalog

Two Line Element Set (TLE):
1 26824U 01024A   20098.35605116 -.00000218  00000-0  00000+0 0  9996
2 26824   0.0690  48.0769 0001719 108.3924 140.2708  1.00270518 68907
Source of the keplerian elements: AFSPC